IZ0DPP-3 San Gemini IT current weather conditions

sailwx.info

Air temperature 14.4° C
Dewpoint 8.4° C

Last reported at 2019-Dec-15 15:04 UTC.
Time now 2019-Dec-15 15:47 UTC

Location: N 42°36' E 012°34'.
View on Google Maps.

See reports from other nearby stations

  
Tides and Currents Weather Stations Pressure Air Temp Water Temp Dewpoint Dewpoint Depression Visibility Wind Speed Wind Dir Waves Ship Positions
date/time (UTC)wind fromknots sea level pressurealtimeterstation pressurevisibilityair tempwater tempwave heightnotes
2019-Dec-15 15:04 14.4
2019-Dec-15 14:59 181 0 gusting 1 14.4
2019-Dec-15 14:54 177 0 gusting 1 15.0
2019-Dec-15 14:49 15.0
2019-Dec-15 14:44 15.0
2019-Dec-15 14:39 15.0
2019-Dec-15 14:34 170 15.0
2019-Dec-15 14:29 166 15.0
2019-Dec-15 14:24 15.0
2019-Dec-15 14:19 176 1 gusting 2 15.0
2019-Dec-15 14:14 154 0 gusting 2 15.6
2019-Dec-15 14:09 129 0 gusting 3 15.6
2019-Dec-15 14:04 130 1 gusting 3 15.6
2019-Dec-15 13:56 141 0 gusting 3 15.6
2019-Dec-15 13:54 160 0 gusting 3 15.6
2019-Dec-15 13:46 225 0 gusting 2 15.6
2019-Dec-15 13:41 225 0 gusting 1 15.6
2019-Dec-15 13:36 225 0 gusting 1 15.6
2019-Dec-15 13:31 15.6
2019-Dec-15 13:27 15.6
2019-Dec-15 13:21 15.6
2019-Dec-15 13:18 253 0 gusting 1 16.1
2019-Dec-15 13:11 234 0 gusting 3 16.1
2019-Dec-15 13:09 216 1 gusting 3 16.7
2019-Dec-15 13:01 174 2 gusting 3 17.2
2019-Dec-15 12:56 175 0 gusting 2 16.7
2019-Dec-15 12:51 178 2 gusting 3 17.2
2019-Dec-15 12:46 17.2
2019-Dec-15 12:42 177 0 gusting 3 16.1
2019-Dec-15 12:36 178 1 gusting 3 16.1
2019-Dec-15 12:33 175 2 gusting 3 16.1
2019-Dec-15 12:26 175 0 gusting 3 16.1
2019-Dec-15 12:24 177 0 gusting 3 16.1
2019-Dec-15 12:16 169 0 gusting 2 16.1
2019-Dec-15 12:11 167 2 gusting 2 16.1
2019-Dec-15 12:06 177 1 gusting 3 15.6
2019-Dec-15 12:01 172 1 gusting 3 15.6
2019-Dec-15 11:57 168 2 gusting 3 15.6
2019-Dec-15 11:51 181 16.1
2019-Dec-15 11:48 16.1
2019-Dec-15 11:41 165 0 gusting 2 16.1
2019-Dec-15 11:39 168 0 gusting 2 16.1
2019-Dec-15 11:31 181 1 gusting 3 15.0
2019-Dec-15 11:26 181 15.0
2019-Dec-15 11:21 181 0 gusting 1 14.4
2019-Dec-15 11:16 13.9
2019-Dec-15 11:12 13.3
2019-Dec-15 11:06 181 13.3
2019-Dec-15 11:03 181 0 gusting 1 12.8
2019-Dec-15 10:56 181 0 gusting 1 12.8
2019-Dec-15 10:54 12.8
2019-Dec-15 10:46 12.8
2019-Dec-15 10:41 12.8
2019-Dec-15 10:36 12.2
2019-Dec-15 10:31 181 12.2
2019-Dec-15 10:27 181 1 gusting 2 12.2
2019-Dec-15 10:21 181 12.2
2019-Dec-15 10:18 12.2
2019-Dec-15 10:11 11.7
2019-Dec-15 10:09 11.7
2019-Dec-15 10:01 11.1
2019-Dec-15 09:56 181 0 gusting 2 10.6
2019-Dec-15 09:51 181 1 gusting 2 10.6
2019-Dec-15 09:46 181 1 gusting 2 10.6
2019-Dec-15 09:42 181 0 gusting 3 10.6
2019-Dec-15 09:36 181 2 gusting 2 10.6
2019-Dec-15 09:33 10.0
2019-Dec-15 09:26 181 1 gusting 2 10.0
2019-Dec-15 09:24 181 0 gusting 4 10.0
2019-Dec-15 09:16 181 0 gusting 4 10.0
2019-Dec-15 09:11 181 9.4
2019-Dec-15 09:06 181 0 gusting 2 9.4
2019-Dec-15 09:01 181 0 gusting 2 9.4
2019-Dec-15 08:57 181 1 gusting 2 9.4
2019-Dec-15 08:51 9.4
2019-Dec-15 08:48 181 0 gusting 3 9.4
2019-Dec-15 08:41 181 8.9
2019-Dec-15 08:39 181 1 gusting 4 8.9
2019-Dec-15 08:31 181 2 gusting 5 8.3
2019-Dec-15 08:26 181 2 gusting 3 8.3
2019-Dec-15 08:21 181 0 gusting 3 8.3
2019-Dec-15 08:16 181 2 gusting 3 8.3
2019-Dec-15 08:12 181 0 gusting 2 8.3
2019-Dec-15 08:06 8.3
2019-Dec-15 08:03 8.3
2019-Dec-15 07:56 7.2
2019-Dec-15 07:54 7.2
2019-Dec-15 07:46 6.7
2019-Dec-15 07:40 6.1
2019-Dec-15 07:36 6.1
2019-Dec-15 07:30 5.6
2019-Dec-15 07:27 181 1 gusting 3 5.6
2019-Dec-15 07:20 181 5.0
2019-Dec-15 07:18 181 1 gusting 3 5.0
2019-Dec-15 07:10 181 2 gusting 2 4.4
2019-Dec-15 07:09 181 1 gusting 3 4.4
2019-Dec-15 07:00 181 2 gusting 2 4.4
2019-Dec-15 06:56 4.4
2019-Dec-15 06:51 181 2 gusting 3 4.4
2019-Dec-15 06:46 181 0 gusting 2 4.4
2019-Dec-15 06:42 181 1 gusting 2 3.9
2019-Dec-15 06:39 181 1 gusting 2 3.9
2019-Dec-15 06:34 181 0 gusting 2 3.9
2019-Dec-15 06:29 181 1 gusting 2 3.9
2019-Dec-15 06:24 181 1 gusting 2 3.9
2019-Dec-15 06:19 3.9
2019-Dec-15 06:14 3.9
2019-Dec-15 06:09 3.9
2019-Dec-15 06:04 3.9
2019-Dec-15 05:59 181 2 gusting 3 3.9
2019-Dec-15 05:54 3.9
2019-Dec-15 05:49 3.9
2019-Dec-15 05:44 3.9
2019-Dec-15 05:39 181 1 gusting 2 3.9
2019-Dec-15 05:34 3.9
2019-Dec-15 05:29 4.4
2019-Dec-15 05:24 4.4
2019-Dec-15 05:19 4.4
2019-Dec-15 05:14 181 4.4
2019-Dec-15 05:09 4.4
2019-Dec-15 05:04 181 0 gusting 2 4.4
2019-Dec-15 04:59 181 0 gusting 2 4.4
2019-Dec-15 04:54 181 2 gusting 4 4.4
2019-Dec-15 04:49 181 5.0
2019-Dec-15 04:44 181 2 gusting 4 5.0
2019-Dec-15 04:39 181 2 gusting 4 5.0
2019-Dec-15 04:34 181 3 gusting 4 4.4
2019-Dec-15 04:29 181 0 gusting 2 5.0
2019-Dec-15 04:24 181 0 gusting 2 5.0
2019-Dec-15 04:19 181 1 gusting 3 5.0
2019-Dec-15 04:14 181 2 gusting 4 5.0
2019-Dec-15 04:09 181 2 gusting 4 5.0
2019-Dec-15 04:04 181 1 gusting 2 4.4
2019-Dec-15 03:59 181 0 gusting 2 4.4
2019-Dec-15 03:54 181 0 gusting 2 5.0
2019-Dec-15 03:49 181 0 gusting 4 4.4
2019-Dec-15 03:44 181 1 gusting 4 4.4
2019-Dec-15 03:39 181 2 gusting 4 4.4
2019-Dec-15 03:34 181 0 gusting 2 4.4
2019-Dec-15 03:29 181 0 gusting 2 4.4
2019-Dec-15 03:24 181 1 gusting 3 4.4
2019-Dec-15 03:19 181 1 gusting 2 3.9
2019-Dec-15 03:14 3.9
2019-Dec-15 03:09 181 3.9
2019-Dec-15 03:04 181 1 gusting 2 3.9
2019-Dec-15 02:59 3.9
2019-Dec-15 02:54 3.9
2019-Dec-15 02:49 181 0 gusting 1 3.9
2019-Dec-15 02:44 3.9
2019-Dec-15 02:39 3.9
2019-Dec-15 02:34 3.9
2019-Dec-15 02:29 181 0 gusting 1 3.9
2019-Dec-15 02:24 3.9
2019-Dec-15 02:19 3.9
2019-Dec-15 02:14 4.4
2019-Dec-15 02:09 4.4
2019-Dec-15 02:04 181 4.4
2019-Dec-15 01:59 181 0 gusting 2 4.4
2019-Dec-15 01:54 181 1 gusting 1 4.4
2019-Dec-15 01:49 4.4
2019-Dec-15 01:44 4.4
2019-Dec-15 01:39 181 0 gusting 1 4.4
2019-Dec-15 01:34 5.0
2019-Dec-15 01:29 181 5.0
2019-Dec-15 01:24 181 5.0
2019-Dec-15 01:19 5.0
2019-Dec-15 01:14 181 0 gusting 2 5.0
2019-Dec-15 01:09 181 1 gusting 3 4.4
2019-Dec-15 01:04 181 2 gusting 2 4.4
2019-Dec-15 00:59 181 0 gusting 2 4.4
2019-Dec-15 00:54 181 0 gusting 1 4.4
2019-Dec-15 00:49 3.9
2019-Dec-15 00:44 3.9
2019-Dec-15 00:39 181 2 gusting 2 3.9
2019-Dec-15 00:34 181 3.9
2019-Dec-15 00:29 181 0 gusting 2 3.9
2019-Dec-15 00:24 3.9
2019-Dec-15 00:19 181 3.9
2019-Dec-15 00:14 181 4.4
2019-Dec-15 00:09 4.4
2019-Dec-15 00:04 181 1 gusting 2 3.9
2019-Dec-14 23:57 181 0 gusting 1 4.4
2019-Dec-14 23:52 4.4
2019-Dec-14 23:48 181 0 gusting 2 4.4
2019-Dec-14 23:42 181 4.4
2019-Dec-14 23:39 181 1 gusting 2 4.4
2019-Dec-14 23:32 181 0 gusting 1 5.0
2019-Dec-14 23:25 5.0
2019-Dec-14 23:22 181 5.0
2019-Dec-14 23:15 181 0 gusting 2 5.0
2019-Dec-14 23:12 181 1 gusting 3 5.0
2019-Dec-14 23:05 181 5.0
2019-Dec-14 23:03 181 2 gusting 3 5.0
2019-Dec-14 22:55 181 0 gusting 3 4.4
2019-Dec-14 22:54 181 1 gusting 3 5.0
2019-Dec-14 22:45 181 2 gusting 3 5.0
2019-Dec-14 22:42 5.0
2019-Dec-14 22:36 181 0 gusting 1 5.0
2019-Dec-14 22:32 5.0
2019-Dec-14 22:27 5.0
2019-Dec-14 22:22 5.0
2019-Dec-14 22:18 5.6
2019-Dec-14 22:12 181 5.0
2019-Dec-14 22:09 181 0 gusting 2 5.6
2019-Dec-14 22:02 5.6
2019-Dec-14 21:55 5.6
2019-Dec-14 21:52 5.6
2019-Dec-14 21:45 5.6
2019-Dec-14 21:42 181 0 gusting 3 5.6
2019-Dec-14 21:35 181 0 gusting 2 5.6
2019-Dec-14 21:33 181 1 gusting 3 5.6
2019-Dec-14 21:25 5.6
2019-Dec-14 21:24 181 1 gusting 6 5.6
2019-Dec-14 21:02 6.1
2019-Dec-14 20:57 181 0 gusting 1 6.1
2019-Dec-14 20:52 6.1
2019-Dec-14 20:48 6.1
2019-Dec-14 20:42 181 0 gusting 2 6.1
2019-Dec-14 20:39 181 2 gusting 3 6.1
2019-Dec-14 20:32 196 6.7
2019-Dec-14 20:22 294 0 gusting 2 6.7
2019-Dec-14 20:12 225 1 gusting 3 6.7
2019-Dec-14 20:03 6.7
2019-Dec-14 19:54 7.2
2019-Dec-14 19:45 7.8
2019-Dec-14 19:42 172 0 gusting 2 7.8
2019-Dec-14 19:36 7.8
2019-Dec-14 19:32 8.3
2019-Dec-14 19:27 150 0 gusting 4 8.3
2019-Dec-14 19:22 165 2 gusting 3 8.3
2019-Dec-14 19:18 177 0 gusting 3 8.3
2019-Dec-14 19:12 175 1 gusting 5 8.3
2019-Dec-14 19:09 175 0 gusting 5 8.9
2019-Dec-14 19:02 090 1 gusting 6 8.9
2019-Dec-14 18:59 068 4 gusting 6 8.9
2019-Dec-14 18:51 154 2 gusting 3 8.3
2019-Dec-14 18:49 125 8.3
2019-Dec-14 18:42 8.3
2019-Dec-14 18:39 079 2 gusting 5 8.3
2019-Dec-14 18:33 056 2 gusting 4 7.8
2019-Dec-14 18:29 045 0 gusting 4 7.8
2019-Dec-14 18:24 080 2 gusting 4 7.8
2019-Dec-14 18:19 087 2 gusting 3 7.2
2019-Dec-14 18:11 131 7.2
2019-Dec-14 18:09 181 7.2
2019-Dec-14 18:01 7.2
2019-Dec-14 17:59 7.2
2019-Dec-14 17:51 7.8
2019-Dec-14 17:49 194 1 gusting 2 7.8
2019-Dec-14 17:41 7.8
2019-Dec-14 17:39 280 1 gusting 4 7.8
2019-Dec-14 17:31 049 2 gusting 5 7.8
2019-Dec-14 17:29 053 4 gusting 5 7.8
2019-Dec-14 17:21 064 2 gusting 6 7.8
2019-Dec-14 17:19 028 2 gusting 5 7.8
2019-Dec-14 17:12 012 2 gusting 5 7.8
2019-Dec-14 17:09 054 5 gusting 5 7.8
2019-Dec-14 17:03 048 3 gusting 3 7.8
2019-Dec-14 16:54 024 1 gusting 6 7.8
2019-Dec-14 16:48 035 1 gusting 5 7.8
2019-Dec-14 16:38 8.3
2019-Dec-14 16:28 083 1 gusting 5 8.9
2019-Dec-14 16:18 080 1 gusting 6 9.4
2019-Dec-14 16:09 176 2 gusting 3 9.4
2019-Dec-14 16:00 150 0 gusting 4 9.4
2019-Dec-14 15:51 090 3 gusting 5 10.0
2019-Dec-14 15:48 078 3 gusting 5 10.6
2019-Dec-14 15:42 051 1 gusting 3 11.1
2019-Dec-14 15:38 066 2 gusting 2 11.7
2019-Dec-14 15:33 215 2 gusting 3 11.1
2019-Dec-14 15:28 225 11.1
2019-Dec-14 15:24 225 1 gusting 1 11.7
2019-Dec-14 15:18 12.2
2019-Dec-14 15:08 13.3
2019-Dec-14 14:58 107 1 gusting 3 14.4
2019-Dec-14 14:48 314 2 gusting 2 6.7
2019-Dec-13 22:54 6.7
2019-Dec-13 22:44 6.7
2019-Dec-13 22:34 256 1 gusting 4 6.7
2019-Dec-13 22:24 286 2 gusting 5 6.7
2019-Dec-13 22:14 301 1 gusting 4 6.7
2019-Dec-13 22:05 320 1 gusting 5 6.7
2019-Dec-13 21:56 307 2 gusting 5 7.2
2019-Dec-13 21:54 272 2 gusting 5 7.2
2019-Dec-13 21:47 183 2 gusting 6 7.2
2019-Dec-13 21:44 214 2 gusting 5 7.2
2019-Dec-13 21:38 310 4 gusting 6 7.2
2019-Dec-13 21:34 319 7.2
2019-Dec-13 21:29 316 1 gusting 6 7.2
2019-Dec-13 21:20 309 3 gusting 7 7.2
2019-Dec-13 21:11 333 4 gusting 6 7.2
2019-Dec-13 21:04 318 2 gusting 7 7.2
2019-Dec-13 20:54 304 0 gusting 9 7.8
2019-Dec-13 20:48 309 2 gusting 9 7.8
2019-Dec-13 20:42 331 5 gusting 8 7.8
2019-Dec-13 20:39 325 3 gusting 9 7.8
2019-Dec-13 20:32 319 4 gusting 10 7.8
2019-Dec-13 20:21 309 5 gusting 11 7.8
2019-Dec-13 20:12 323 4 gusting 7 7.8
2019-Dec-13 20:03 319 5 gusting 9 8.3
2019-Dec-13 19:54 329 3 gusting 6 8.3
2019-Dec-13 19:45 314 2 gusting 7 8.3
2019-Dec-13 19:42 320 0 gusting 7 8.9
2019-Dec-13 19:36 319 3 gusting 8 8.9
2019-Dec-13 19:27 319 2 gusting 7 9.4
2019-Dec-13 19:18 317 0 gusting 6 8.9
2019-Dec-13 19:09 318 1 gusting 5 8.9
2019-Dec-13 19:00 319 0 gusting 4 9.4
2019-Dec-13 18:59 319 2 gusting 4 9.4
2019-Dec-13 18:52 315 1 gusting 3 8.9
2019-Dec-13 18:49 318 1 gusting 3 8.3
2019-Dec-13 18:42 319 2 gusting 4 7.8
2019-Dec-13 18:39 7.2
2019-Dec-13 18:33 327 1 gusting 4 6.7
2019-Dec-13 18:29 6.1
2019-Dec-13 18:24 311 0 gusting 3 6.1
2019-Dec-13 18:19 181 0 gusting 2 6.1
2019-Dec-13 18:12 6.1
2019-Dec-13 18:09 188 1 gusting 2 6.1
2019-Dec-13 18:02 6.7
2019-Dec-13 17:59 6.7
2019-Dec-13 17:52 313 6.7
2019-Dec-13 17:49 328 6.7
2019-Dec-13 17:42 6.7
2019-Dec-13 17:39 6.7
2019-Dec-13 17:32 049 3 gusting 4 7.2
2019-Dec-13 17:29 025 2 gusting 2 7.2
2019-Dec-13 17:22 340 0 gusting 7 7.8
2019-Dec-13 17:19 329 0 gusting 7 7.8
2019-Dec-13 17:12 337 0 gusting 6 8.3
2019-Dec-13 17:09 342 1 gusting 5 8.3
2019-Dec-13 17:03 326 0 gusting 5 8.3
2019-Dec-13 16:59 319 8.3
2019-Dec-13 16:54 318 1 gusting 6 8.3
2019-Dec-13 16:47 321 2 gusting 5 8.3
2019-Dec-13 16:42 322 8.3
2019-Dec-13 16:37 317 0 gusting 4 8.3
2019-Dec-13 16:32 323 2 gusting 10 8.3
2019-Dec-13 16:27 326 1 gusting 16 8.9
2019-Dec-13 16:22 322 5 gusting 16 9.4
2019-Dec-13 16:18 316 9 gusting 16 9.4
2019-Dec-13 16:12 330 7 gusting 13 8.9
2019-Dec-13 16:09 343 0 gusting 5 8.3
2019-Dec-13 16:02 352 1 gusting 3 8.9
2019-Dec-13 15:57 342 1 gusting 5 8.9
2019-Dec-13 15:52 328 0 gusting 18 9.4
2019-Dec-13 15:47 310 5 gusting 18 8.9
2019-Dec-13 15:42 283 12 gusting 28 8.9
2019-Dec-13 15:37 275 9 gusting 28 9.4
2019-Dec-13 15:33 263 14 gusting 26 10.6
2019-Dec-13 15:27 181 0 gusting 4 11.7
2019-Dec-13 15:24 11.7
2019-Dec-13 15:17 181 0 gusting 2 11.7
2019-Dec-13 15:09 181 12.2
2019-Dec-13 15:04 181 2 gusting 3 12.2